Regional Weather Roundup
Issued by NWS

Home | Current Version | Previous Version | Text Only | Print | Product List | Glossary Off
Versions: 1 2 3 4 5 6 7 8 9 10 11 12 13 14 15 16 17 18 19 20 21 22 23 24 25 26 27 28 29 30 31 32 33 34 35 36 37 38 39 40 41 42 43 44 45 46 47 48 49 50

000
ASUS43 KLOT 201004
RWRIL

ILLINOIS REGIONAL WEATHER ROUNDUP
NATIONAL WEATHER SERVICE CHICAGO/ROMEOVILLE IL
500 AM CDT THU JUL 20 2017

NOTE: "FAIR" INDICATES FEW OR NO CLOUDS BELOW 12,000 FEET WITH NO
SIGNIFICANT WEATHER AND/OR OBSTRUCTIONS TO VISIBILITY.

* THESE STATIONS ARE NOT UNDER NWS QUALITY CONTROL. THEY ALSO MAY NOT
  REPORT WEATHER SUCH AS PRECIPITATION OR FOG.

ILZ001-002-007-009-015-016-024-201100-
NORTHWEST ILLINOIS

CITY           SKY/WX    TMP DP  RH WIND       PRES   REMARKS
MOLINE         PTCLDY    78  71  79 S7        29.94F HX  80
STERLING*      CLOUDY    71  67  87 VRB6      29.96F
SAVANNA*       CLOUDY    71  67  86 N14G21    30.00R
$$

ILZ003-004-008-010-011-017-018-201100-
NORTH CENTRAL ILLINOIS

CITY           SKY/WX    TMP DP  RH WIND       PRES   REMARKS
ROCKFORD       TSTM      70  67  90 E8        30.04R FOG
FREEPORT*      TSTM      67  66  96 E12       30.01R
ROCHELLE*      CLOUDY    72  68  88 E12G18    30.02R
DE KALB*       CLOUDY    69  68  96 NW14G24   30.07R THUNDER
PERU*          PTCLDY    69  65  88 S8        30.00S
$$

ILZ005-006-012>014-019>023-201100-
NORTHEAST ILLINOIS

CITY           SKY/WX    TMP DP  RH WIND       PRES   REMARKS
CHICAGO-OHARE  CLOUDY    71  67  87 CALM      30.01R
CHICAGO-MIDWAY CLOUDY    71  68  90 W3        30.03R
AURORA         CLOUDY    70  68  93 E7        30.01S
LANSING*       CLOUDY    69  65  89 S3        30.03R
JOLIET*        CLOUDY    71  69  95 E3        30.02R
WAUKEGAN       LGT RAIN  69  68  96 W3        30.01R FOG
DUPAGE AIRPORT CLOUDY    69  69 100 S7        30.01F
WHEELING       LGT RAIN  71  70  96 S3        30.02F
MORRIS*        CLOUDY    69  67  93 E6        29.99R
ROMEOVILLE*    CLOUDY    69  66  91 SE6       30.01S
NORTHERLY ISL    N/A     72  66  81 W9          N/A
$$

LMZ740>746-201100-
SOUTHERN LAKE MICHIGAN

STATION/POSITION SKY/WX   TEMP    WIND        PRES    VSBY  WAVE
                          AIR SEA DIR/SP/G                  HT/PER
                          (F)     (DEG/KT/KT) (MB)    (MI)  (FT/S)
SOUTHERN BUOY              69 69  270/  8/  8 1015.5          3/ 4
WILMETTE HARBOR            71 71  280/  4/  4   N/A           1/ 2
HARRISON CRIB              73     300/  7/  9   N/A
BURNHAM HARBOR             72                   N/A
CALUMET HARBOR             70     220/  3/  5 1015.9R
BURNS HARBOR               71     210/ 11/ 17 1016.6R
MICHIGAN CITY              71     240/  5/  6   N/A
MICHIGAN CITY 6N           72 74  240/ 10/ 12   N/A           1/ 3
ST. JOSEPH                 73 73  300/  8/ 12 1016.9R         3/ 3
$$

ILZ025>027-034>036-040-047-049-050-058-095>099-201100-
WEST-CENTRAL ILLINOIS

CITY           SKY/WX    TMP DP  RH WIND       PRES   REMARKS
QUINCY         CLOUDY    76  70  82 S6        30.01F
GALESBURG*     MOCLDY    74  72  93 S5        29.98F
MACOMB*        CLOUDY    76  71  86 SW7       30.00F
JACKSONVILLE*  CLOUDY    76  73  88 SW6       30.01F
PITTSFIELD*    PTCLDY    77  70  78 SW6       30.03S
$$

ILZ028>032-037-038-041>044-048-051>054-059>061-201100-
CENTRAL ILLINOIS

CITY           SKY/WX    TMP DP  RH WIND       PRES   REMARKS
PONTIAC        MOCLDY    71  70  98 S5        30.02S
BLOOMINGTON    MOCLDY    72  67  84 S6        30.03R
DECATUR        CLOUDY    76  74  93 S7        30.01F
PEORIA         CLOUDY    74  69  85 S6        29.99S
LACON*         CLOUDY    70  67  88 CALM      29.99S
SPRINGFIELD    CLOUDY    79  75  87 SW6       30.01S HX  83
TAYLORVILLE    CLOUDY    75  74  95 S7        30.02S
$$

ILZ033-039-045-046-055>057-062-063-201100-
EAST-CENTRAL ILLINOIS

CITY           SKY/WX    TMP DP  RH WIND       PRES   REMARKS
CHAMPAIGN      PTCLDY    72  69  90 SE6       30.03R
RANTOUL*       MOCLDY    72  70  93 S5        30.03R
MATTOON        CLOUDY    77  76  96 S7        30.02S
$$

ILZ079-100>102-201100-
SOUTHWEST ILLINOIS

CITY           SKY/WX    TMP DP  RH WIND       PRES   REMARKS
ALTON          PTCLDY    73  73  98 S5        30.03F
BELLEVILLE     PTCLDY    75  73  91 CALM      30.06R
CAHOKIA*       PTCLDY    80  70  71 CALM      30.04R HX  83
SPARTA*        CLEAR     77  72  83 SW3       30.06R
$$

ILZ064>066-069>071-074>076-080>082-084>086-088>090-092>094-201100-
SOUTH-CENTRAL ILLINOIS

CITY           SKY/WX    TMP DP  RH WIND       PRES   REMARKS
CARBONDALE     PTCLDY    74  73  97 SW3       30.06S
CAIRO*         CLEAR     73  72  96 CALM      30.08R
EFFINGHAM*     CLEAR     77  76  98 S3        30.05F
MARION         PTCLDY    75  75 100 SW5       30.07R
MT. VERNON     CLEAR     73  73 100 CALM      30.06S FOG
CENTRALIA*     CLOUDY    76  74  93 CALM      30.05S
SALEM*         CLOUDY    77  73  90 S5        30.05S
METROPOLIS*    PTCLDY    73  73  98 CALM      30.08S FOG
$$

ILZ067-068-072-073-078-083-087-091-201100-
SOUTHEAST ILLINOIS

CITY           SKY/WX    TMP DP  RH WIND       PRES   REMARKS
LAWRENCEVILLE  CLEAR     73  72  96 CALM      30.04F FOG
FLORA*         CLEAR     74  73  97 SW6       30.04S FOG
FAIRFIELD*     PTCLDY    73  73 100 CALM      30.05S FOG
HARRISBURG*    CLEAR     73  73  98 CALM      30.06S
ROBINSON*      CLEAR     72  71  98 CALM      30.04S FOG
CARMI*         CLEAR     73  72  99 CALM      30.05R FOG
$$

ABBREVIATIONS USED IN REMARKS
   TC - TEMPERATURE IN CELSIUS
  WCI - WIND CHILL INDEX
   HX - HEAT INDEX
  VSB - VISIBILITY
$$





USA.gov is the U.S. government's official web portal to all federal, state and local government web resources and services.